CZ-3C DEB

Satellite information

Favourite Embed

Satellite Type and Status

DEBRISIN ORBIT

Key statistics

Satellite CZ-3C DEB at a glance.

Uptime

5042

Days in orbit

Revolutions

≈ 2.3

Per day

Orbit

MEO

Medium Earth Orbit

Inclination

22.6

Latest

Satellite identification and parameters

Extended collection of information and parameters for CZ-3C DEB.

Object identification

Identified? True

Debris? True

Object name: CZ-3C DEB

International designator: 2012-008V

Object number (NORAD): 40855

Object ID (CCSDS): 40855

Country: PEOPLES REPUBLIC OF CHINA (PRC)

Current information (Y/N): Y

RCS size: MEDIUM

Orbital parameters

Period: 620.423 minutes

Inclination: 22.6403 deg

SMA: 24096.389 km

Apoapsis: 34714.12 km

Periapsis: 722.387 km

RAAN: 40.7445 deg

Eccentricy: 0.70532836

Argument of periapsis: 100.3721 deg

Mean anomaly: 9.2176 deg

Mean motion: 2.32099826 rev/day

Mean motion (dot): -0.00000102 rev/day2

B* drag term: -0.00057280507 1/REarth

Two-line elements (TLE)

Creation date: Dec. 13, 2025, 4:32 a.m.

Reference frame: TEME

Reference center: EARTH

Epoch: Dec. 12, 2025, 8:37 p.m. UTC

TLE line 0: 0 CZ-3C DEB

TLE line 1: 1 40855U 12008V 25346.85944319 -.00000102 00000-0 -57281-3 0 9997

TLE line 2: 2 40855 22.6403 40.7445 7053284 100.3721 9.2176 2.32099826 94018

Live tracking on map

Real-time ground track for satellite CZ-3C DEB.

In-orbit conjunctions

There are no conjunctions computed for CZ-3C DEB, at the moment. Check back to stay up to date, as we update our databases every day.

Go to all conjunctions

Associated space launch

CZ-3C DEB was lifted into orbit during the mission ‘Long March 3C | Compass-G5’, on board a Long March 3 space rocket.

The launch took place on Feb. 24, 2012, 4:12 p.m. from Launch Complex 2 (LC-2).

For more information about the launch, click the button.

Launch to space Long March 3C | Compass-G5
Long March 3C | Compass-G5

Agency: N/A

Status: Launch Successful

Launch date: Feb. 24, 2012, 4:12 p.m. UTC

Rocket: Long March 3

Launch pad: Launch Complex 2 (LC-2)

Location: Xichang Satellite Launch Center, People's Republic of China

...

Latest news about this satellite

There are no fresh news available about this satellite. Check back as we update our databases every day.


Newsletter sign-up

Weekly statistics, charts and insights to help you stay on top of the space industry.